When you browse on this site, cookies collect data to enhance your experience and personalize the content and advertising you see.
Visit our Privacy Policy to learn more. By continuing to use the site, you agree to this use of cookies and data.
  • In Österreich
  • Länderverzeichnis
  • Für 7 Tage
  • Wassertemperatur
  • Satellitenkarten
  • Wetterkarte
  • News
  • Widgets
  • user-avatar
    Anmelden

    Stündliche Wetter Miami

    Heute, 11 Dezember, Dienstag

    Zeit Temperatur Niederschläge Wind Luftdruck Luftfeuchtigkeit
    00:00 +15°C° 0 mm 6 m/S 765 mmHg 72%
    01:00 +15°C° 0 mm 6 m/S 765 mmHg 72%
    02:00 +14°C° 0 mm 6 m/S 765 mmHg 72%
    03:00 +14°C° 0 mm 6 m/S 765 mmHg 72%
    04:00 +14°C° 0 mm 6 m/S 765 mmHg 72%
    05:00 +13°C° 0 mm 6 m/S 765 mmHg 72%
    06:00 +13°C° 0 mm 6 m/S 766 mmHg 72%
    07:00 +12°C° 0 mm 7 m/S 766 mmHg 73%
    08:00 +14°C° 0 mm 7 m/S 767 mmHg 67%
    09:00 +15°C° 0 mm 8 m/S 767 mmHg 62%
    10:00 +16°C° 0 mm 8 m/S 768 mmHg 57%
    11:00 +17°C° 0 mm 8 m/S 768 mmHg 52%
    12:00 +18°C° 0 mm 8 m/S 767 mmHg 47%
    13:00 +20°C° 0 mm 8 m/S 767 mmHg 42%
    14:00 +18°C° 0 mm 7 m/S 767 mmHg 42%
    15:00 +18°C° 0 mm 7 m/S 767 mmHg 43%
    16:00 +18°C° 0 mm 7 m/S 766 mmHg 44%
    17:00 +17°C° 0 mm 7 m/S 767 mmHg 47%
    18:00 +15°C° 0 mm 7 m/S 767 mmHg 51%
    19:00 +14°C° 0 mm 6 m/S 767 mmHg 54%
    20:00 +14°C° 0 mm 6 m/S 767 mmHg 55%
    21:00 +13°C° 0 mm 6 m/S 767 mmHg 55%
    22:00 +13°C° 0 mm 6 m/S 768 mmHg 56%
    23:00 +11°C° 0 mm 6 m/S 767 mmHg 59%

    Morgen, 12 Dezember, Mittwoch

    Zeit Temperatur Niederschläge Wind Luftdruck Luftfeuchtigkeit
    00:00 +12°C° 0 mm 5 m/S 767 mmHg 62%
    01:00 +12°C° 0 mm 5 m/S 767 mmHg 65%
    02:00 +10°C° 0 mm 5 m/S 767 mmHg 67%
    03:00 +10°C° 0 mm 5 m/S 767 mmHg 69%
    04:00 +10°C° 0 mm 5 m/S 767 mmHg 71%
    05:00 +10°C° 0 mm 5 m/S 767 mmHg 70%
    06:00 +10°C° 0 mm 5 m/S 767 mmHg 69%
    07:00 +10°C° 0 mm 5 m/S 767 mmHg 69%
    08:00 +13°C° 0 mm 5 m/S 767 mmHg 65%
    09:00 +15°C° 0 mm 5 m/S 768 mmHg 61%
    10:00 +17°C° 0 mm 5 m/S 768 mmHg 57%
    11:00 +20°C° 0 mm 5 m/S 767 mmHg 56%
    12:00 +21°C° 0 mm 5 m/S 767 mmHg 55%
    13:00 +22°C° 0 mm 5 m/S 766 mmHg 55%
    14:00 +22°C° 0 mm 5 m/S 766 mmHg 56%
    15:00 +22°C° 0 mm 5 m/S 765 mmHg 57%
    16:00 +22°C° 0 mm 4 m/S 765 mmHg 58%
    17:00 +21°C° 0 mm 4 m/S 765 mmHg 60%
    18:00 +21°C° 0 mm 4 m/S 766 mmHg 62%
    19:00 +21°C° 0 mm 4 m/S 766 mmHg 63%
    20:00 +21°C° 0 mm 4 m/S 766 mmHg 64%
    21:00 +21°C° 0 mm 5 m/S 766 mmHg 65%
    22:00 +21°C° 0 mm 5 m/S 766 mmHg 65%
    23:00 +21°C° 0.2 mm 5 m/S 766 mmHg 68%

    übermorgen, 13 Dezember, Donnerstag

    Zeit Temperatur Niederschläge Wind Luftdruck Luftfeuchtigkeit
    00:00 +20°C° 0.2 mm 5 m/S 765 mmHg 72%
    01:00 +20°C° 0.2 mm 6 m/S 765 mmHg 75%
    02:00 +20°C° 0.2 mm 5 m/S 765 mmHg 76%
    03:00 +21°C° 0.2 mm 5 m/S 764 mmHg 77%
    04:00 +21°C° 0.2 mm 5 m/S 764 mmHg 77%
    05:00 +21°C° 0.1 mm 5 m/S 764 mmHg 76%
    06:00 +21°C° 0.1 mm 5 m/S 765 mmHg 76%
    07:00 +21°C° 0.1 mm 6 m/S 765 mmHg 75%
    08:00 +22°C° 0.1 mm 6 m/S 765 mmHg 68%
    09:00 +24°C° 0.1 mm 7 m/S 765 mmHg 62%
    10:00 +26°C° 0.1 mm 7 m/S 766 mmHg 55%
    11:00 +26°C° 0 mm 7 m/S 765 mmHg 53%
    12:00 +27°C° 0 mm 6 m/S 765 mmHg 52%
    13:00 +27°C° 0 mm 6 m/S 764 mmHg 50%
    14:00 +27°C° 0 mm 6 m/S 764 mmHg 52%
    15:00 +27°C° 0 mm 6 m/S 764 mmHg 54%
    16:00 +27°C° 0 mm 6 m/S 763 mmHg 57%
    17:00 +26°C° 0 mm 6 m/S 763 mmHg 61%
    18:00 +24°C° 0 mm 6 m/S 764 mmHg 66%
    19:00 +24°C° 0 mm 7 m/S 764 mmHg 70%
    20:00 +24°C° 0.1 mm 7 m/S 764 mmHg 73%
    21:00 +24°C° 0.1 mm 7 m/S 764 mmHg 75%
    22:00 +24°C° 0.1 mm 8 m/S 764 mmHg 78%
    23:00 +24°C° 0.2 mm 7 m/S 764 mmHg 79%

    14 Dezember, Freitag

    Zeit Temperatur Niederschläge Wind Luftdruck Luftfeuchtigkeit
    00:00 +24°C° 0.2 mm 7 m/S 763 mmHg 80%
    01:00 +24°C° 0.2 mm 7 m/S 763 mmHg 82%
    02:00 +24°C° 0.5 mm 7 m/S 763 mmHg 84%
    03:00 +24°C° 0.5 mm 6 m/S 763 mmHg 86%
    04:00 +23°C° 0.5 mm 6 m/S 762 mmHg 88%
    05:00 +23°C° 1.2 mm 5 m/S 762 mmHg 89%
    06:00 +23°C° 1.2 mm 5 m/S 762 mmHg 89%
    07:00 +23°C° 1.2 mm 5 m/S 762 mmHg 89%
    08:00 +25°C° 1 mm 5 m/S 763 mmHg 87%
    09:00 +24°C° 1 mm 6 m/S 763 mmHg 84%
    10:00 +26°C° 1 mm 6 m/S 763 mmHg 82%
    11:00 +26°C° 0.4 mm 6 m/S 763 mmHg 81%
    12:00 +26°C° 0.4 mm 6 m/S 762 mmHg 81%
    13:00 +27°C° 0.4 mm 6 m/S 761 mmHg 81%
    14:00 +27°C° 0.5 mm 6 m/S 761 mmHg 80%
    15:00 +27°C° 0.5 mm 6 m/S 761 mmHg 80%
    16:00 +27°C° 0.5 mm 6 m/S 760 mmHg 79%
    17:00 +27°C° 0.3 mm 5 m/S 761 mmHg 82%
    18:00 +26°C° 0.3 mm 5 m/S 761 mmHg 85%
    19:00 +26°C° 0.3 mm 4 m/S 761 mmHg 89%
    20:00 +25°C° 0 mm 4 m/S 761 mmHg 89%
    21:00 +25°C° 0 mm 5 m/S 762 mmHg 88%
    22:00 +25°C° 0 mm 5 m/S 762 mmHg 88%
    23:00 +25°C° 0.2 mm 5 m/S 762 mmHg 89%

    15 Dezember, Samstag

    Zeit Temperatur Niederschläge Wind Luftdruck Luftfeuchtigkeit
    00:00 +23°C° 0.2 mm 5 m/S 761 mmHg 90%
    01:00 +23°C° 0.2 mm 5 m/S 761 mmHg 92%
    02:00 +23°C° 0 mm 5 m/S 761 mmHg 91%
    03:00 +22°C° 0 mm 5 m/S 761 mmHg 91%
    04:00 +22°C° 0 mm 4 m/S 761 mmHg 90%
    05:00 +22°C° 0 mm 4 m/S 762 mmHg 89%
    06:00 +21°C° 0 mm 4 m/S 762 mmHg 87%
    07:00 +21°C° 0 mm 4 m/S 763 mmHg 85%
    08:00 +22°C° 0 mm 4 m/S 763 mmHg 78%
    09:00 +23°C° 0 mm 5 m/S 764 mmHg 71%
    10:00 +25°C° 0 mm 5 m/S 765 mmHg 64%
    11:00 +25°C° 0 mm 5 m/S 764 mmHg 64%
    12:00 +24°C° 0 mm 6 m/S 764 mmHg 64%
    13:00 +24°C° 0 mm 6 m/S 763 mmHg 63%
    14:00 +24°C° 0 mm 6 m/S 763 mmHg 62%
    15:00 +24°C° 0 mm 6 m/S 763 mmHg 60%
    16:00 +23°C° 0 mm 6 m/S 763 mmHg 59%
    17:00 +22°C° 0 mm 5 m/S 764 mmHg 62%
    18:00 +22°C° 0 mm 5 m/S 764 mmHg 65%
    19:00 +21°C° 0 mm 4 m/S 765 mmHg 68%
    20:00 +20°C° 0 mm 4 m/S 765 mmHg 70%
    21:00 +19°C° 0 mm 4 m/S 765 mmHg 72%
    22:00 +19°C° 0 mm 3 m/S 765 mmHg 75%
    23:00 +19°C° 0 mm 3 m/S 765 mmHg 76%

    16 Dezember, Sonntag

    Zeit Temperatur Niederschläge Wind Luftdruck Luftfeuchtigkeit
    00:00 +18°C° 0 mm 3 m/S 765 mmHg 77%
    01:00 +18°C° 0 mm 3 m/S 765 mmHg 79%
    02:00 +18°C° 0 mm 3 m/S 765 mmHg 79%
    03:00 +17°C° 0 mm 3 m/S 765 mmHg 80%
    04:00 +17°C° 0 mm 3 m/S 765 mmHg 80%
    05:00 +17°C° 0 mm 3 m/S 765 mmHg 81%
    06:00 +17°C° 0 mm 3 m/S 766 mmHg 82%
    07:00 +16°C° 0 mm 3 m/S 766 mmHg 84%
    08:00 +18°C° 0 mm 3 m/S 767 mmHg 76%
    09:00 +20°C° 0 mm 3 m/S 767 mmHg 69%
    10:00 +21°C° 0 mm 3 m/S 767 mmHg 62%
    11:00 +22°C° 0 mm 3 m/S 767 mmHg 58%
    12:00 +24°C° 0 mm 3 m/S 766 mmHg 54%
    13:00 +25°C° 0 mm 3 m/S 765 mmHg 50%
    14:00 +25°C° 0 mm 3 m/S 765 mmHg 49%
    15:00 +25°C° 0 mm 3 m/S 765 mmHg 49%
    16:00 +25°C° 0 mm 3 m/S 765 mmHg 49%
    17:00 +24°C° 0 mm 3 m/S 765 mmHg 53%
    18:00 +22°C° 0 mm 3 m/S 765 mmHg 57%
    19:00 +20°C° 0 mm 3 m/S 766 mmHg 62%
    20:00 +20°C° 0 mm 3 m/S 766 mmHg 64%
    21:00 +19°C° 0 mm 3 m/S 766 mmHg 65%
    22:00 +19°C° 0 mm 3 m/S 766 mmHg 67%
    23:00 +18°C° 0 mm 3 m/S 766 mmHg 70%
    Mehr zeigen